Simultaneous Nadir Overpasses (SNOs) Predictions

Prediction of SNOs between GOES-17 and NOAA-20 Satellite Orbit:

Table of predicted SNOs for the next 14.0 days since TLE Epoch: 8/7/2020
Index Date Time (GOES-17) GOES-17 Lat,Lon NOAA-20 Lat,Lon Distance(km) Time Diff (sec)
1 08/07/2020 22:46:23 0.00,-137.17 -0.76,-140.63 393.77 80
2 08/08/2020 22:30:17 0.00,-137.17 0.24,-136.09 122.66 80
3 08/10/2020 10:52:05 -0.00,-137.16 0.91,-141.36 478.68 80
4 08/11/2020 10:30:39 -0.00,-137.15 -0.09,-136.83 37.32 80
5 08/13/2020 22:33:49 -0.00,-137.13 -0.11,-137.59 52.29 80
6 08/14/2020 22:17:43 -0.01,-137.12 0.89,-133.06 463.01 80
7 08/16/2020 10:39:31 0.01,-137.09 0.26,-138.33 140.15 80
8 08/17/2020 10:18:05 0.01,-137.08 -0.74,-133.79 374.60 80
9 08/18/2020 22:40:01 -0.01,-137.05 -0.45,-139.09 232.40 80
10 08/19/2020 22:23:55 -0.01,-137.03 0.55,-134.56 282.03 80
11 08/21/2020 10:45:41 0.01,-137.00 0.66,-139.82 322.15 80
